星链-31884 (STARLINK-31884 )

导读

STARLINK-31884是美国SpaceX公司星链(Starlink)星座的组网卫星,于2024年5月6日发射入轨。作为低轨宽带通信卫星,它采用平板设计与氪工质霍尔推进器,搭载Ku/Ka波段通信载荷,具备自主避撞能力,服务全球宽带互联网接入。卫星设计寿命5-7年,退役后将主动离轨坠入大气层焚毁,是星链大规模组网的重要组成单元,支撑星座全球覆盖的建设目标。

基本信息
目录编号:
59676
目录名称:
STARLINK-31884
国际标识:
2024-084Y
轨道中心:
EARTH
卫星名称:
星链-31884
卫星全名:
星链-31884 (STARLINK-31884 )
卫星状态:
在轨 (已飞行773 天)
发射日期:
2024-05-06 UTC
国别 :
美国 (US)
星等 :
--
轨道信息
数据来源 国际轨道数据
星历时间: 2026-06-17T16:00:01+0800
18小时前
查看轨道信息
半长轴: 6861.184km
偏心率: 0.0001433
轨道倾角: 43.001°
近地点辐角 287.861°
升交点赤经 199.051°
平近点角 39.614°
近地点: 482.063km
远地点: 484.031km
周期: 94.267分钟
每日圈数: 15.27581
详细信息
固有亮度:
5
最大亮度:
1.5
卫星平台:
Starlink v2.0 mini
覆盖范围:
全球
运营商:
太空探索技术公司
运营商所在国:
美国
制造商(研发单位):
太空探索技术公司
制造商所在国:
美国
使用方式:
暂无
卫星简介
星链(Starlink)计划是由太空探索技术公司(SpaceX)提出的一个巨型低轨卫星互联网星座项目,计划在2019年至2024年间在太空搭建由约1.2万颗卫星组成的“星链”网络,其中1584颗将部署在地球上空550千米处的近地轨道,并从2020年开始工作。该卫星仍在工作。
2D轨道图
3D轨道图
轨道高度分析图
轨道倾角分析图
轨道综合分析图
查看轨道综合分析图